Time,TemperatureF,DewpointF,PressureIn,WindDirection,WindDirectionDegrees,WindSpeedMPH,WindSpeedGustMPH,Humidity,HourlyPrecipIn,Conditions,Clouds,dailyrainin,SoftwareType,DateUTC
2013-07-01 00:32:00,69.0,-99.9,29.93,West,268,-999.0,-999.0,-999,0.00,,,-99.99,,2013-07-01 04:32:00,
2013-07-01 00:43:00,69.0,-99.9,29.93,West,268,-999.0,-999.0,-999,0.00,,,-99.99,,2013-07-01 04:43:00,
2013-07-01 00:52:00,69.0,-99.9,29.93,West,268,-999.0,-999.0,-999,0.00,,,-99.99,,2013-07-01 04:52:00,
2013-07-01 01:33:00,69.0,-99.9,29.93,West,268,-999.0,-999.0,-999,0.00,,,-99.99,,2013-07-01 05:33:00,
2013-07-01 01:42:00,69.0,-99.9,29.93,West,268,-999.0,-999.0,-999,0.00,,,-99.99,,2013-07-01 05:42:00,
2013-07-01 01:52:00,68.0,-99.9,29.93,West,268,-999.0,-999.0,-999,0.00,,,-99.99,,2013-07-01 05:52:00,
2013-07-01 02:34:00,68.0,-99.9,29.93,West,268,-999.0,-999.0,-999,0.00,,,-99.99,,2013-07-01 06:34:00,
2013-07-01 02:43:00,68.0,-99.9,29.93,West,268,-999.0,-999.0,-999,0.00,,,-99.99,,2013-07-01 06:43:00,
2013-07-01 02:52:00,68.0,-99.9,29.92,West,268,-999.0,-999.0,-999,0.00,,,-99.99,,2013-07-01 06:52:00,
2013-07-01 03:33:00,68.0,-99.9,29.92,West,268,-999.0,-999.0,-999,0.00,,,-99.99,,2013-07-01 07:33:00,
2013-07-01 03:43:00,68.0,-99.9,29.92,West,268,-999.0,-999.0,-999,0.00,,,-99.99,,2013-07-01 07:43:00,
2013-07-01 03:52:00,68.0,-99.9,29.91,West,268,-999.0,-999.0,-999,0.00,,,-99.99,,2013-07-01 07:52:00,
2013-07-01 04:33:00,68.0,-99.9,29.91,West,268,-999.0,-999.0,-999,0.00,,,-99.99,,2013-07-01 08:33:00,
2013-07-01 04:43:00,68.0,-99.9,29.91,West,268,-999.0,-999.0,-999,0.00,,,-99.99,,2013-07-01 08:43:00,
2013-07-01 04:52:00,71.0,-99.9,29.92,West,268,-999.0,-999.0,-999,0.00,,,-99.99,,2013-07-01 08:52:00,
2013-07-01 05:34:00,71.0,-99.9,29.92,West,268,-999.0,-999.0,-999,0.00,,,-99.99,,2013-07-01 09:34:00,
2013-07-01 05:43:00,71.0,-99.9,29.92,West,268,-999.0,-999.0,-999,0.00,,,-99.99,,2013-07-01 09:43:00,
2013-07-01 05:52:00,68.0,-99.9,29.94,ESE,104,-999.0,-999.0,-999,0.08,,,-99.99,,2013-07-01 09:52:00,
2013-07-01 06:33:00,68.0,-99.9,29.94,ESE,104,-999.0,-999.0,-999,0.08,,,-99.99,,2013-07-01 10:33:00,
2013-07-01 06:43:00,68.0,-99.9,29.94,ESE,104,-999.0,-999.0,-999,0.08,,,-99.99,,2013-07-01 10:43:00,
2013-07-01 07:34:00,68.0,-99.9,29.95,ESE,104,-999.0,-999.0,-999,0.38,,,-99.99,,2013-07-01 11:34:00,
2013-07-01 07:43:00,68.0,-99.9,29.95,ESE,104,-999.0,-999.0,-999,0.38,,,-99.99,,2013-07-01 11:43:00,
2013-07-01 07:52:00,68.0,-99.9,29.95,ESE,104,-999.0,-999.0,-999,0.38,,,-99.99,,2013-07-01 11:52:00,
2013-07-01 08:33:00,68.0,-99.9,29.96,ESE,104,-999.0,-999.0,-999,0.25,,,-99.99,,2013-07-01 12:33:00,
2013-07-01 08:43:00,68.0,-99.9,29.96,ESE,104,-999.0,-999.0,-999,0.25,,,-99.99,,2013-07-01 12:43:00,
2013-07-01 08:53:00,68.0,-99.9,29.97,ESE,104,-999.0,-999.0,-999,0.16,,,-99.99,,2013-07-01 12:53:00,
2013-07-01 09:33:00,68.0,-99.9,29.97,ESE,104,-999.0,-999.0,-999,0.16,,,-99.99,,2013-07-01 13:33:00,
2013-07-01 09:43:00,68.0,-99.9,29.97,ESE,104,-999.0,-999.0,-999,0.16,,,-99.99,,2013-07-01 13:43:00,
2013-07-01 09:52:00,70.0,-99.9,29.97,ESE,104,-999.0,-999.0,-999,0.11,,,-99.99,,2013-07-01 13:52:00,
2013-07-01 10:34:00,70.0,-99.9,29.97,ESE,104,-999.0,-999.0,-999,0.11,,,-99.99,,2013-07-01 14:34:00,
2013-07-01 10:43:00,70.0,-99.9,29.97,ESE,104,-999.0,-999.0,-999,0.11,,,-99.99,,2013-07-01 14:43:00,
2013-07-01 10:52:00,71.0,-99.9,29.98,ESE,104,-999.0,-999.0,-999,0.04,,,-99.99,,2013-07-01 14:52:00,
2013-07-01 11:34:00,71.0,-99.9,29.98,ESE,104,-999.0,-999.0,-999,0.04,,,-99.99,,2013-07-01 15:34:00,
2013-07-01 11:44:00,71.0,-99.9,29.98,ESE,104,-999.0,-999.0,-999,0.04,,,-99.99,,2013-07-01 15:44:00,
2013-07-01 11:52:00,71.0,-99.9,29.98,ESE,104,-999.0,-999.0,-999,0.00,,,-99.99,,2013-07-01 15:52:00,
2013-07-01 12:33:00,71.0,-99.9,29.98,ESE,104,-999.0,-999.0,-999,0.00,,,-99.99,,2013-07-01 16:33:00,
2013-07-01 12:44:00,71.0,-99.9,29.98,ESE,104,-999.0,-999.0,-999,0.00,,,-99.99,,2013-07-01 16:44:00,
2013-07-01 12:52:00,73.0,-99.9,29.98,ESE,104,-999.0,-999.0,-999,0.00,,,-99.99,,2013-07-01 16:52:00,
2013-07-01 13:43:00,73.0,-99.9,29.98,ESE,104,-999.0,-999.0,-999,0.00,,,-99.99,,2013-07-01 17:43:00,
2013-07-01 13:52:00,73.0,-99.9,29.98,ESE,104,-999.0,-999.0,-999,0.03,,,-99.99,,2013-07-01 17:52:00,
2013-07-01 14:33:00,73.0,-99.9,29.98,ESE,104,-999.0,-999.0,-999,0.03,,,-99.99,,2013-07-01 18:33:00,
2013-07-01 14:44:00,73.0,-99.9,29.98,ESE,104,-999.0,-999.0,-999,0.03,,,-99.99,,2013-07-01 18:44:00,
2013-07-01 14:53:00,73.0,-99.9,29.98,ESE,104,-999.0,-999.0,-999,0.10,,,-99.99,,2013-07-01 18:53:00,
2013-07-01 15:34:00,73.0,-99.9,29.98,ESE,104,-999.0,-999.0,-999,0.10,,,-99.99,,2013-07-01 19:34:00,
2013-07-01 15:44:00,73.0,-99.9,29.98,ESE,104,-999.0,-999.0,-999,0.10,,,-99.99,,2013-07-01 19:44:00,
2013-07-01 15:52:00,74.0,-99.9,29.97,ESE,104,-999.0,-999.0,-999,0.08,,,-99.99,,2013-07-01 19:52:00,
2013-07-01 16:34:00,74.0,-99.9,29.97,ESE,104,-999.0,-999.0,-999,0.08,,,-99.99,,2013-07-01 20:34:00,
2013-07-01 16:43:00,74.0,-99.9,29.97,ESE,104,-999.0,-999.0,-999,0.08,,,-99.99,,2013-07-01 20:43:00,
2013-07-01 16:52:00,74.0,-99.9,29.97,WSW,252,5.0,8.0,-999,0.04,,,-99.99,,2013-07-01 20:52:00,
2013-07-01 17:34:00,74.0,-99.9,29.97,WSW,252,5.0,8.0,-999,0.04,,,-99.99,,2013-07-01 21:34:00,
2013-07-01 17:44:00,74.0,-99.9,29.97,WSW,252,5.0,8.0,-999,0.04,,,-99.99,,2013-07-01 21:44:00,
2013-07-01 17:52:00,74.0,-99.9,29.98,WNW,298,-999.0,6.0,-999,0.02,,,-99.99,,2013-07-01 21:52:00,
2013-07-01 18:33:00,74.0,-99.9,29.98,WNW,298,-999.0,6.0,-999,0.02,,,-99.99,,2013-07-01 22:33:00,
2013-07-01 18:43:00,74.0,-99.9,29.98,WNW,298,-999.0,6.0,-999,0.02,,,-99.99,,2013-07-01 22:43:00,
2013-07-01 18:52:00,74.0,-99.9,29.98,SSW,209,2.0,6.0,-999,0.01,,,-99.99,,2013-07-01 22:52:00,
2013-07-01 19:33:00,74.0,-99.9,29.98,SSW,209,2.0,6.0,-999,0.01,,,-99.99,,2013-07-01 23:33:00,
2013-07-01 19:44:00,74.0,-99.9,29.98,SSW,209,2.0,6.0,-999,0.01,,,-99.99,,2013-07-01 23:44:00,
2013-07-01 19:52:00,73.0,-99.9,30.00,WSW,239,-999.0,5.0,-999,0.00,,,-99.99,,2013-07-01 23:52:00,
2013-07-01 20:34:00,73.0,-99.9,30.00,WSW,239,-999.0,5.0,-999,0.00,,,-99.99,,2013-07-02 00:34:00,
2013-07-01 20:43:00,73.0,-99.9,30.00,WSW,239,-999.0,5.0,-999,0.00,,,-99.99,,2013-07-02 00:43:00,
2013-07-01 20:52:00,72.0,-99.9,30.01,WSW,252,-999.0,-999.0,-999,0.00,,,-99.99,,2013-07-02 00:52:00,
2013-07-01 21:33:00,72.0,-99.9,30.01,WSW,252,-999.0,-999.0,-999,0.00,,,-99.99,,2013-07-02 01:33:00,
2013-07-01 21:43:00,72.0,-99.9,30.01,WSW,252,-999.0,-999.0,-999,0.00,,,-99.99,,2013-07-02 01:43:00,
2013-07-01 21:53:00,72.0,-99.9,30.03,SW,230,-999.0,-999.0,-999,0.00,,,-99.99,,2013-07-02 01:53:00,
2013-07-01 22:34:00,72.0,-99.9,30.03,SW,230,-999.0,-999.0,-999,0.00,,,-99.99,,2013-07-02 02:34:00,
2013-07-01 22:43:00,72.0,-99.9,30.03,SW,230,-999.0,-999.0,-999,0.00,,,-99.99,,2013-07-02 02:43:00,
2013-07-01 22:52:00,71.0,-99.9,30.03,SW,233,-999.0,6.0,-999,0.00,,,-99.99,,2013-07-02 02:52:00,
2013-07-01 23:43:00,71.0,-99.9,30.03,SW,233,-999.0,6.0,-999,0.00,,,-99.99,,2013-07-02 03:43:00,
2013-07-01 23:53:00,71.0,-99.9,30.04,SW,233,-999.0,-999.0,-999,0.00,,,-99.99,,2013-07-02 03:53:00,